TimePST,TemperatureF,Dew PointF,Humidity,Sea Level PressureIn,VisibilityMPH,Wind Direction,Wind SpeedMPH,Gust SpeedMPH,PrecipitationIn,Events,Conditions,WindDirDegrees,DateUTC
12:53 AM,32.0,26.1,79,29.68,10.0,SSE,4.6,-,N/A,,Mostly Cloudy,160,2013-11-17 08:53:00
1:53 AM,30.9,26.1,82,29.71,10.0,SSE,6.9,-,N/A,,Overcast,150,2013-11-17 09:53:00
2:53 AM,30.9,25.0,79,29.72,10.0,South,9.2,-,N/A,,Overcast,170,2013-11-17 10:53:00
3:53 AM,30.0,25.0,82,29.76,10.0,South,10.4,-,N/A,,Clear,170,2013-11-17 11:53:00
4:53 AM,30.0,26.1,85,29.79,10.0,SSE,6.9,-,N/A,,Mostly Cloudy,160,2013-11-17 12:53:00
5:53 AM,30.0,26.1,85,29.82,10.0,SSE,4.6,-,N/A,,Overcast,160,2013-11-17 13:53:00
6:53 AM,30.0,26.1,85,29.85,10.0,SE,6.9,-,N/A,,Overcast,140,2013-11-17 14:53:00
7:53 AM,30.0,26.1,85,29.89,10.0,SSE,8.1,-,N/A,,Clear,160,2013-11-17 15:53:00
8:53 AM,33.1,27.0,78,29.91,10.0,SSE,8.1,-,N/A,,Clear,160,2013-11-17 16:53:00
9:53 AM,34.0,27.0,75,29.94,10.0,SSE,8.1,-,N/A,,Overcast,160,2013-11-17 17:53:00
10:53 AM,35.1,28.0,76,29.94,10.0,SSE,6.9,-,N/A,,Overcast,160,2013-11-17 18:53:00
11:53 AM,35.1,28.9,78,29.94,10.0,SSE,8.1,-,N/A,,Overcast,160,2013-11-17 19:53:00
12:53 PM,37.0,30.9,79,29.92,10.0,South,6.9,-,N/A,,Overcast,180,2013-11-17 20:53:00
1:53 PM,39.0,34.0,82,29.90,10.0,SSE,5.8,-,N/A,,Overcast,150,2013-11-17 21:53:00
2:53 PM,41.0,36.0,82,29.87,10.0,SSE,8.1,-,N/A,,Overcast,150,2013-11-17 22:53:00
3:53 PM,39.0,37.0,93,29.87,10.0,WNW,5.8,-,0.01,,Overcast,300,2013-11-17 23:53:00
4:53 PM,42.1,35.1,76,29.86,10.0,South,12.7,20.7,0.01,,Overcast,190,2013-11-18 00:53:00
5:06 PM,42.8,35.6,76,29.81,10.0,South,11.5,-,N/A,,Overcast,180,2013-11-18 01:06:00
5:53 PM,42.1,34.0,73,29.87,10.0,South,17.3,24.2,N/A,,Overcast,190,2013-11-18 01:53:00
6:53 PM,43.0,34.0,71,29.87,10.0,SSW,17.3,-,N/A,,Mostly Cloudy,200,2013-11-18 02:53:00
7:53 PM,43.0,34.0,71,29.88,10.0,South,12.7,-,N/A,,Overcast,190,2013-11-18 03:53:00
8:53 PM,42.1,34.0,73,29.88,10.0,SSW,12.7,-,N/A,,Mostly Cloudy,210,2013-11-18 04:53:00
9:53 PM,42.1,34.0,73,29.88,10.0,SSW,13.8,23.0,N/A,,Overcast,210,2013-11-18 05:53:00
10:53 PM,42.1,34.0,73,29.89,10.0,South,9.2,20.7,N/A,,Partly Cloudy,190,2013-11-18 06:53:00
11:53 PM,41.0,34.0,76,29.90,10.0,SSW,9.2,-,N/A,,Partly Cloudy,200,2013-11-18 07:53:00